Location: Unspecified
(0.0000°N, 0.0000°E)
Time: 16:35:14
(UTC+00:00)

Envisat - Visible Passes

Search period start: 27 July 2017 00:00
Search period end: 06 August 2017 00:00
Orbit: 764 x 766 km, 98.2° (Epoch: 26 July)

Date Brightness Start Highest point End Pass type
(mag) Time Alt. Az. Time Alt. Az. Time Alt. Az.
27 Jul 4.9 19:38:04 16° NE 19:38:04 16° NE 19:39:28 10° NNE visible
27 Jul 6.0 21:18:16 11° NW 21:18:16 11° NW 21:18:26 10° NW visible
28 Jul 5.0 20:41:09 22° NNW 20:41:09 22° NNW 20:42:55 10° NNW visible
29 Jul 4.6 20:04:03 23° NNE 20:04:03 23° NNE 20:06:04 10° N visible
30 Jul 5.1 19:26:57 12° NE 19:26:57 12° NE 19:27:34 10° NE visible
30 Jul 5.7 21:07:09 13° NW 21:07:09 13° NW 21:07:52 10° NW visible
31 Jul 4.9 20:30:04 23° NNW 20:30:04 23° NNW 20:31:54 10° NNW visible
01 Aug 4.7 19:52:58 19° NNE 19:52:58 19° NNE 19:54:41 10° NNE visible
02 Aug 5.5 20:56:04 16° NW 20:56:04 16° NW 20:57:08 10° NNW visible
03 Aug 4.8 20:18:59 23° N 20:18:59 23° N 20:20:48 10° N visible
04 Aug 4.9 19:41:53 15° NE 19:41:53 15° NE 19:43:09 10° NNE visible
05 Aug 5.3 20:45:00 18° NNW 20:45:00 18° NNW 20:46:17 10° NNW visible
